Time_in_sec,gx,gy,gz
1314362230.96952415,0.12056507,0.03106338,-0.99221930
1314362231.01744938,0.12040867,0.03102116,-0.99223961
1314362231.06847358,0.12032790,0.03088180,-0.99225375
1314362231.11760211,0.12008785,0.03103904,-0.99227793
1314362231.16871810,0.12012529,0.03078667,-0.99228126
1314362231.22149611,0.12015484,0.03081928,-0.99227667
1314362231.26946497,0.12025322,0.03063128,-0.99227057
1314362231.32046914,0.12007155,0.03076756,-0.99228836
1314362231.36947107,0.11977983,0.03073318,-0.99232468
1314362231.41748405,0.11971255,0.03091256,-0.99232722
1314362231.46953154,0.11979876,0.03087759,-0.99231791
1314362231.52109170,0.11976491,0.03082821,-0.99232353
1314362231.56950641,0.11981356,0.03076690,-0.99231956
1314362231.61762953,0.11954426,0.03080620,-0.99235082
1314362231.66946697,0.11960516,0.03084602,-0.99234224
1314362231.71700239,0.11971936,0.03096862,-0.99232465
1314362231.76864243,0.11973211,0.03116075,-0.99231710
1314362231.81752777,0.11988749,0.03132537,-0.99229316
1314362231.86951995,0.11965481,0.03107758,-0.99232903
1314362231.92152953,0.12001677,0.03108481,-0.99228510
1314362231.96737194,0.11996123,0.03090993,-0.99229727
1314362232.01761365,0.11967415,0.03105073,-0.99232754
1314362232.06949115,0.11976813,0.03094042,-0.99231965
1314362232.11251855,0.11992854,0.03103068,-0.99229746
1314362232.17020345,0.11975188,0.03106671,-0.99231766
1314362232.22093201,0.11997052,0.03121785,-0.99228651
1314362232.26962376,0.12004625,0.03143486,-0.99227050
1314362232.32170558,0.11972803,0.03115703,-0.99231771
1314362232.36949825,0.11979740,0.03112715,-0.99231028
1314362232.42163706,0.12006452,0.03121118,-0.99227535
1314362232.46950293,0.11995610,0.03110675,-0.99229174
1314362232.52046871,0.11998138,0.03114179,-0.99228759
1314362232.56961226,0.12028644,0.03109016,-0.99225227
1314362232.61745620,0.12029821,0.03107198,-0.99225142
1314362232.66993809,0.11992568,0.03121372,-0.99229206
1314362232.72161555,0.11992419,0.03143691,-0.99228520
1314362232.76950932,0.11996445,0.03134812,-0.99228314
1314362232.81763959,0.11998862,0.03121766,-0.99228433
1314362232.86947370,0.11990894,0.03115931,-0.99229579
1314362232.92153621,0.11990800,0.03125381,-0.99229294
1314362232.96962500,0.11992090,0.03123997,-0.99229181
1314362233.01746392,0.11981954,0.03159961,-0.99229267
1314362233.06962347,0.11971963,0.03142503,-0.99231027
1314362233.11762381,0.11991307,0.03096176,-0.99230148
1314362233.16735578,0.12008606,0.03085713,-0.99228382
1314362233.22151732,0.12009170,0.03097684,-0.99227941
1314362233.26947451,0.12007642,0.03116715,-0.99227530
1314362233.30890751,0.12018502,0.03091134,-0.99227015
1314362233.36860991,0.12033578,0.03102281,-0.99224840
1314362233.41744781,0.12045640,0.03100791,-0.99223423
1314362233.46861911,0.12044292,0.03110511,-0.99223282
1314362233.51700735,0.12040383,0.03133235,-0.99223042
1314362233.56946850,0.12053416,0.03092154,-0.99222748
1314362233.62149405,0.12069317,0.03121697,-0.99219890
1314362233.66947246,0.12090002,0.03125769,-0.99217244
1314362233.70849133,0.12088526,0.03104357,-0.99218096
1314362233.76962113,0.12097324,0.03123903,-0.99216410
1314362233.81747246,0.12091027,0.03124568,-0.99217157
1314362233.86850643,0.12103622,0.03130209,-0.99215443
1314362233.92061424,0.12111871,0.03156649,-0.99213599
1314362233.96948051,0.12109123,0.03151283,-0.99214105
1314362234.02051330,0.12099724,0.03170084,-0.99214652
1314362234.06949091,0.12100186,0.03166585,-0.99214708
1314362234.12084818,0.12077639,0.03139865,-0.99218304
1314362234.16946244,0.12086312,0.03116589,-0.99217982
1314362234.21750212,0.12093161,0.03126475,-0.99216836
1314362234.26161957,0.12081766,0.03146423,-0.99217594
1314362234.32149816,0.12075519,0.03145349,-0.99218389
1314362234.36957502,0.12070053,0.03169361,-0.99218289
1314362234.42084861,0.12068887,0.03161208,-0.99218691
1314362234.46949482,0.12082379,0.03148375,-0.99217457
1314362234.52159810,0.12089285,0.03152242,-0.99216493
1314362234.56860518,0.12104407,0.03127721,-0.99215426
1314362234.61747193,0.12109143,0.03117424,-0.99215172
1314362234.66948962,0.12086387,0.03101452,-0.99218447
1314362234.72160912,0.12101175,0.03118011,-0.99216126
1314362234.76946807,0.12108219,0.03124924,-0.99215049
1314362234.82161379,0.12110823,0.03127979,-0.99214635
1314362234.86950278,0.12094431,0.03125643,-0.99216708
1314362234.91738939,0.12101910,0.03111510,-0.99216240
1314362234.96962523,0.12097934,0.03114260,-0.99216639
1314362235.01742983,0.12089384,0.03118541,-0.99217546
1314362235.06898808,0.12089587,0.03131023,-0.99217128
1314362235.12162304,0.12094113,0.03129651,-0.99216620
1314362235.17044330,0.12090797,0.03135538,-0.99216838
1314362235.21688008,0.12061995,0.03143337,-0.99220097
1314362235.26950288,0.12079681,0.03155417,-0.99217562
1314362235.31747150,0.12086809,0.03160634,-0.99216528
1314362235.36950684,0.12095620,0.03124549,-0.99216597
1314362235.41757607,0.12100555,0.03127309,-0.99215908
1314362235.46894097,0.12092604,0.03141677,-0.99216424
1314362235.52162361,0.12091268,0.03114827,-0.99217433
1314362235.56963706,0.12100356,0.03142821,-0.99215443
1314362235.62079430,0.12092446,0.03121427,-0.99217082
1314362235.67095494,0.12107477,0.03138472,-0.99214712
1314362235.72160411,0.12101251,0.03150882,-0.99215078
1314362235.76964235,0.12099818,0.03155244,-0.99215114
1314362235.82319498,0.12088098,0.03143168,-0.99216926
1314362235.86850142,0.12104235,0.03140870,-0.99215031
1314362235.91760230,0.12079542,0.03152221,-0.99217681
1314362235.96951580,0.12081411,0.03169408,-0.99216906
1314362236.02092838,0.12080381,0.03175453,-0.99216838
1314362236.06954026,0.12084153,0.03183238,-0.99216129
1314362236.12161374,0.12087996,0.03175414,-0.99215911
1314362236.16865349,0.12096648,0.03154457,-0.99215526
1314362236.22146153,0.12096728,0.03147700,-0.99215730
1314362236.26853633,0.12093029,0.03138618,-0.99216469
1314362236.31761980,0.12104210,0.03151777,-0.99214688
1314362236.36956477,0.12081614,0.03153572,-0.99217385
1314362236.42087984,0.12113143,0.03141495,-0.99213924
1314362236.46953940,0.12107959,0.03096354,-0.99215976
1314362236.50949836,0.12116044,0.03103433,-0.99214768
1314362236.56870246,0.12119301,0.03107070,-0.99214256
1314362236.62147665,0.12113384,0.03104003,-0.99215075
1314362236.66967225,0.12094534,0.03115008,-0.99217030
1314362236.71684408,0.12100085,0.03107047,-0.99216602
1314362236.76947284,0.12121326,0.03126793,-0.99213389
1314362236.82062626,0.12127022,0.03118450,-0.99212956
1314362236.86948013,0.12153381,0.03116801,-0.99209782
1314362236.92066669,0.12153405,0.03119082,-0.99209708
1314362236.96859360,0.12140278,0.03129563,-0.99210985
1314362237.02421403,0.12154800,0.03131211,-0.99209155
1314362237.06865287,0.12151382,0.03127400,-0.99209694
1314362237.12062955,0.12162069,0.03123569,-0.99208505
1314362237.17358470,0.12159760,0.03118524,-0.99208946
1314362237.21683764,0.12165077,0.03098746,-0.99208914
1314362237.26955032,0.12169477,0.03093954,-0.99208524
1314362237.32052326,0.12181363,0.03064306,-0.99207986
1314362237.36959577,0.12185112,0.03077086,-0.99207130
1314362237.42193866,0.12202471,0.03055223,-0.99205672
1314362237.46952844,0.12188374,0.03048198,-0.99207621
1314362237.51782322,0.12192701,0.03067053,-0.99206508
1314362237.56949615,0.12184927,0.03044182,-0.99208168
1314362237.62073278,0.12193156,0.03038550,-0.99207329
1314362237.66952586,0.12224176,0.03026951,-0.99203866
1314362237.70953655,0.12215833,0.03025608,-0.99204935
1314362237.76847434,0.12197960,0.03034878,-0.99206851
1314362237.82177210,0.12200440,0.03033494,-0.99206588
1314362237.87053704,0.12210024,0.03060776,-0.99204571
1314362237.92046714,0.12235581,0.03048790,-0.99201791
1314362237.96949840,0.12235856,0.03047350,-0.99201802
1314362238.02065468,0.12254267,0.03051681,-0.99199396
1314362238.06948543,0.12238912,0.03061636,-0.99200985
1314362238.12167907,0.12241333,0.03071388,-0.99200385
1314362238.16871333,0.12253105,0.03062294,-0.99199213
1314362238.22145700,0.12249889,0.03066861,-0.99199469
1314362238.26961446,0.12216531,0.03095353,-0.99202697
1314362238.32063174,0.12209463,0.03109131,-0.99203137
1314362238.36951780,0.12207727,0.03089262,-0.99203971
1314362238.42057800,0.12193405,0.03080217,-0.99206014
1314362238.46947837,0.12208863,0.03086666,-0.99203912
1314362238.52049875,0.12207011,0.03095699,-0.99203858
1314362238.56953311,0.12206021,0.03102407,-0.99203771
1314362238.60948110,0.12206649,0.03106531,-0.99203564
1314362238.66863346,0.12220233,0.03092404,-0.99202333
1314362238.72083378,0.12212578,0.03128869,-0.99202133
1314362238.76946259,0.12224381,0.03115243,-0.99201108
1314362238.82062101,0.12214723,0.03103605,-0.99202662
1314362238.86873865,0.12199307,0.03103614,-0.99204559
1314362238.92047930,0.12204781,0.03065014,-0.99205086
1314362238.96862960,0.12191443,0.03061048,-0.99206848
1314362239.02068281,0.12166985,0.03038968,-0.99210529
1314362239.06862164,0.12159570,0.03033085,-0.99211619
1314362239.12073374,0.12168109,0.03041620,-0.99210310
1314362239.16949368,0.12143642,0.03030626,-0.99213644
1314362239.22081709,0.12158741,0.03039831,-0.99211514
1314362239.26948285,0.12165714,0.03017111,-0.99211352
1314362239.32066822,0.12166128,0.03014096,-0.99211393
1314362239.36871147,0.12192965,0.03025843,-0.99207741
1314362239.42145705,0.12172884,0.03015950,-0.99210508
1314362239.46951246,0.12178353,0.03025127,-0.99209558
1314362239.52051449,0.12184507,0.03004205,-0.99209438
1314362239.56948686,0.12158950,0.03016876,-0.99212189
1314362239.62065792,0.12144598,0.02995729,-0.99214587
1314362239.66946745,0.12140789,0.03007748,-0.99214690
1314362239.72065639,0.12165631,0.03019106,-0.99211302
1314362239.76879978,0.12163222,0.03012679,-0.99211793
1314362239.82150078,0.12139303,0.03030162,-0.99214190
1314362239.86863279,0.12145771,0.03033988,-0.99213281
1314362239.92063189,0.12163048,0.03046497,-0.99210781
1314362239.96950889,0.12156474,0.03047935,-0.99211543
1314362240.02085495,0.12157751,0.03043343,-0.99211527
1314362240.06948328,0.12156371,0.03060876,-0.99211157
1314362240.12058854,0.12149024,0.03055522,-0.99212222
1314362240.16863704,0.12145064,0.03078652,-0.99211992
1314362240.22144842,0.12158253,0.03067518,-0.99210721
1314362240.26870847,0.12143892,0.03071283,-0.99212364
1314362240.32167912,0.12160631,0.03058250,-0.99210716
1314362240.36947250,0.12149812,0.03045921,-0.99212421
1314362240.42151570,0.12151589,0.03070285,-0.99211452
1314362240.46963477,0.12147039,0.03045633,-0.99212769
1314362240.52069473,0.12172647,0.03059892,-0.99209192
1314362240.56877494,0.12176193,0.03059694,-0.99208763
1314362240.62307191,0.12171822,0.03058724,-0.99209329
1314362240.66956139,0.12171306,0.03051569,-0.99209613
1314362240.72068977,0.12171076,0.03021674,-0.99210556
1314362240.76949286,0.12172207,0.03028521,-0.99210208
1314362240.82071114,0.12167285,0.03019282,-0.99211094
1314362240.86947799,0.12176973,0.03016989,-0.99209975
1314362240.92071295,0.12181198,0.03032554,-0.99208982
1314362240.96965790,0.12199983,0.02994855,-0.99207819
1314362241.02147484,0.12217867,0.03017013,-0.99204946
1314362241.06967020,0.12232634,0.03001357,-0.99203601
1314362241.11765003,0.12226385,0.03004493,-0.99204277
1314362241.16946006,0.12233057,0.02999912,-0.99203593
1314362241.21765995,0.12231322,0.02970767,-0.99204684
1314362241.26952291,0.12240355,0.02952140,-0.99204126
1314362241.32060599,0.12244847,0.02964454,-0.99203204
1314362241.36855435,0.12238390,0.02968533,-0.99203879
1314362241.42146778,0.12242996,0.02965142,-0.99203412
1314362241.46866369,0.12235314,0.02965989,-0.99204335
1314362241.52068567,0.12219637,0.02998342,-0.99205294
1314362241.56947541,0.12213591,0.02998169,-0.99206044
1314362241.62155938,0.12234193,0.03021854,-0.99202787
1314362241.66951084,0.12219771,0.03003894,-0.99205110
1314362241.70954132,0.12208126,0.03006562,-0.99206463
1314362241.76965904,0.12227444,0.03012640,-0.99203899
1314362241.82145667,0.12222606,0.02976583,-0.99205584
1314362241.86862874,0.12202023,0.02967752,-0.99208382
1314362241.91764641,0.12193463,0.02953759,-0.99209852
1314362241.96957302,0.12191457,0.02964350,-0.99209783
1314362242.02062559,0.12197563,0.02963847,-0.99209047
1314362242.06948161,0.12203717,0.02961155,-0.99208371
1314362242.12052774,0.12213664,0.02980345,-0.99206572
1314362242.16864371,0.12230264,0.02976103,-0.99204654
1314362242.22180772,0.12246700,0.02990008,-0.99202209
1314362242.26866198,0.12217299,0.02982957,-0.99206046
1314362242.31764150,0.12232374,0.02982235,-0.99204210
1314362242.36951351,0.12216042,0.02979350,-0.99206309
1314362242.42062688,0.12213803,0.02982825,-0.99206481
1314362242.46948552,0.12203292,0.02987144,-0.99207644
1314362242.52048612,0.12202912,0.02989945,-0.99207606
1314362242.56950426,0.12190027,0.02997732,-0.99208955
1314362242.62143946,0.12176293,0.03005022,-0.99210422
1314362242.67158461,0.12182800,0.03015310,-0.99209311
1314362242.72090459,0.12179211,0.03018318,-0.99209660
1314362242.77231121,0.12179817,0.02992478,-0.99210368
1314362242.82059407,0.12175280,0.02984172,-0.99211175
1314362242.86949492,0.12165486,0.02975690,-0.99212631
1314362242.92048907,0.12150322,0.02946688,-0.99215355
1314362242.96858215,0.12149901,0.02967222,-0.99214795
1314362243.02147484,0.12158875,0.02977897,-0.99213376
1314362243.06946778,0.12144681,0.02985645,-0.99214881
1314362243.12062693,0.12142153,0.02975675,-0.99215490
1314362243.16959524,0.12149280,0.02988181,-0.99214242
1314362243.22051144,0.12143112,0.03003597,-0.99214531
1314362243.26951075,0.12179167,0.02991370,-0.99210481
1314362243.30951762,0.12161377,0.02998284,-0.99212455
1314362243.36848426,0.12162392,0.03005355,-0.99212116
1314362243.42310691,0.12155115,0.03011469,-0.99212823
1314362243.46857166,0.12118254,0.03010038,-0.99217375
1314362243.52064323,0.12122549,0.02992682,-0.99217376
1314362243.56947589,0.12113139,0.02976838,-0.99219002
1314362243.61751986,0.12115870,0.02968379,-0.99218922
1314362243.66950250,0.12125239,0.02957435,-0.99218104
1314362243.71756291,0.12110796,0.02957569,-0.99219864
1314362243.76957250,0.12116069,0.02932154,-0.99219974
1314362243.81747866,0.12127179,0.02932929,-0.99218594
1314362243.86854649,0.12106932,0.02943488,-0.99220754
1314362243.92063069,0.12114306,0.02924642,-0.99220412
1314362243.96949005,0.12101618,0.02917863,-0.99222159
1314362244.01752496,0.12095139,0.02933990,-0.99222474
1314362244.06951118,0.12114496,0.02954029,-0.99219518
1314362244.12050295,0.12119933,0.02932803,-0.99219483
1314362244.16858172,0.12107508,0.02934788,-0.99220942
1314362244.21745372,0.12117154,0.02935785,-0.99219735
1314362244.26865959,0.12116759,0.02925403,-0.99220090
1314362244.32063937,0.12140227,0.02917925,-0.99217441
1314362244.36951542,0.12158057,0.02918041,-0.99215254
1314362244.42063332,0.12168105,0.02921827,-0.99213911
1314362244.46948099,0.12176569,0.02907089,-0.99213306
1314362244.51757479,0.12174448,0.02916556,-0.99213288
1314362244.56950355,0.12164523,0.02916971,-0.99214493
1314362244.61746359,0.12168745,0.02921280,-0.99213849
1314362244.66965365,0.12162764,0.02937428,-0.99214105
1314362244.72060728,0.12146338,0.02935530,-0.99216174
1314362244.76949477,0.12149560,0.02924856,-0.99216095
1314362244.81763291,0.12162401,0.02910482,-0.99214944
1314362244.86952305,0.12135098,0.02930758,-0.99217690
1314362244.91750407,0.12146412,0.02954075,-0.99215614
1314362244.96865058,0.12165560,0.02943496,-0.99213583
1314362245.02047539,0.12175445,0.02943330,-0.99212375
1314362245.06849313,0.12175737,0.02940831,-0.99212413
1314362245.12151837,0.12187417,0.02933250,-0.99211204
1314362245.16949272,0.12183771,0.02951351,-0.99211115
1314362245.22063398,0.12191243,0.02945710,-0.99210364
1314362245.26956081,0.12221859,0.02960164,-0.99206167
1314362245.32053638,0.12244730,0.02963899,-0.99203235
1314362245.36870742,0.12258977,0.02967506,-0.99201368
1314362245.42248273,0.12244636,0.02954676,-0.99203522
1314362245.46963310,0.12244254,0.02936740,-0.99204102
1314362245.52374530,0.12240785,0.02945240,-0.99204278
1314362245.56742191,0.12236520,0.02967109,-0.99204152
1314362245.62061906,0.12251838,0.02972331,-0.99202105
1314362245.66956711,0.12237227,0.02971754,-0.99203926
1314362245.70947981,0.12235630,0.02962013,-0.99204414
1314362245.76855969,0.12252509,0.02981432,-0.99201749
1314362245.82046747,0.12247210,0.02953782,-0.99203231
1314362245.86961913,0.12244997,0.02958101,-0.99203375
1314362245.92154408,0.12247244,0.02962957,-0.99202953
1314362245.96845841,0.12249949,0.02972825,-0.99202324
1314362246.01754355,0.12254688,0.02981608,-0.99201475
1314362246.06961298,0.12251693,0.02990774,-0.99201569
1314362246.10849047,0.12250533,0.03004149,-0.99201308
1314362246.16860557,0.12244775,0.03007764,-0.99201910
1314362246.21747684,0.12226998,0.03007944,-0.99204097
1314362246.26859426,0.12235068,0.03014733,-0.99202896
1314362246.32054567,0.12235414,0.03020405,-0.99202680
1314362246.36947036,0.12242760,0.03053144,-0.99200772
1314362246.42056894,0.12234401,0.03050771,-0.99201876
1314362246.46849060,0.12229298,0.03054642,-0.99202386
1314362246.52045846,0.12213086,0.03036779,-0.99204932
1314362246.56863809,0.12213728,0.03023519,-0.99205258
1314362246.61744738,0.12206197,0.03029668,-0.99205997
1314362246.66950202,0.12193387,0.03019737,-0.99207875
1314362246.72147679,0.12186358,0.03010281,-0.99209026
1314362246.76949024,0.12167300,0.02997984,-0.99211738
1314362246.81767702,0.12148008,0.03010277,-0.99213730
1314362246.86956835,0.12146425,0.03012368,-0.99213860
1314362246.91772032,0.12129399,0.03018632,-0.99215753
1314362246.96968532,0.12127009,0.03005151,-0.99216454
1314362247.02056909,0.12119864,0.03008580,-0.99217223
1314362247.06860018,0.12123856,0.03023792,-0.99216273
1314362247.12053442,0.12111485,0.03031339,-0.99217553
1314362247.16952324,0.12105153,0.03011464,-0.99218931
1314362247.21755695,0.12123022,0.03024701,-0.99216347
1314362247.26956272,0.12132848,0.03022142,-0.99215224
1314362247.31749296,0.12154530,0.03042610,-0.99211944
1314362247.36952400,0.12158886,0.03045468,-0.99211323
1314362247.41871548,0.12181950,0.03023887,-0.99209154
1314362247.46945524,0.12195109,0.03025717,-0.99207481
1314362247.51851201,0.12191823,0.03022650,-0.99207979
1314362247.56748581,0.12191765,0.03035978,-0.99207579
1314362247.61862826,0.12150630,0.03016041,-0.99213233
1314362247.66947699,0.12151972,0.03002943,-0.99213466
1314362247.70949244,0.12146495,0.02991623,-0.99214479
1314362247.76848197,0.12153419,0.02991095,-0.99213647
1314362247.81744361,0.12167210,0.02967480,-0.99212666
1314362247.86848044,0.12151450,0.02976506,-0.99214327
1314362247.92141056,0.12151035,0.02993429,-0.99213869
1314362247.96953535,0.12120522,0.02987380,-0.99217783
1314362248.02046204,0.12116393,0.02964876,-0.99218963
1314362248.06949687,0.12113381,0.02976363,-0.99218986
1314362248.11737847,0.12114316,0.02967862,-0.99219127
1314362248.16856241,0.12095149,0.02977250,-0.99221184
1314362248.21745038,0.12064789,0.02951933,-0.99225637
1314362248.26955223,0.12042012,0.02917340,-0.99229426
1314362248.31976819,0.12047309,0.02920508,-0.99228690
1314362248.36975741,0.12053314,0.02905982,-0.99228388
1314362248.41752148,0.12050367,0.02916005,-0.99228451
1314362248.46948051,0.12049601,0.02905729,-0.99228846
1314362248.51739979,0.12053593,0.02906820,-0.99228329
1314362248.57097077,0.12056350,0.02935121,-0.99227161
1314362248.61734819,0.12044487,0.02935485,-0.99228591
1314362248.66952062,0.12044138,0.02925008,-0.99228943
1314362248.71752667,0.12062097,0.02896838,-0.99227588
1314362248.76950336,0.12062194,0.02897059,-0.99227569
1314362248.82146573,0.12062252,0.02913802,-0.99227072
